Weather History for KSLO - March, 2014

Change the Weather History Date:

Monday, March 10, 2014

  Actual Average Record
Temperature  
Mean Temperature 54 °F -  
Max Temperature 69 °F 53 °F 82 °F (1990)
Min Temperature 41 °F 31 °F 16 °F (1969)
Degree Days  
Heating Degree Days 10    
Growing Degree Days 4 (Base 50)    
Moisture  
Dew Point 42 °F    
Average Humidity 67    
Maximum Humidity 89    
Minimum Humidity 42    
Precipitation  
Precipitation 0.00 in - - ()
Sea Level Pressure  
Sea Level Pressure 29.86 in    
Wind  
Wind Speed 13 mph (SSW)    
Max Wind Speed 18 mph    
Max Gust Speed 25 mph    
Visibility 8 miles    
Events      
Averages and records for this station are not official NWS values.
T = Trace of Precipitation, MM = Missing Value Source: NWS Daily Summary

Daily Weather History Graph

Daily Weather History Graph

Search for Another Location

Airport or City:

Trip Planner

Search our weather history database for the weather conditions in past years. The results will help you decide how hot, cold, wet, or windy it might be!

Date:

Astronomy

Mar. 10, 2014 Rise Set
Actual Time 7:14 AM CDT 6:58 PM CDT
Civil Twilight 6:48 AM CDT 7:24 PM CDT
Nautical Twilight 6:17 AM CDT 7:55 PM CDT
Astronomical Twilight 5:46 AM CDT 8:26 PM CDT
Moon 1:44 PM CDT (3/10) 3:23 AM CDT (3/10)
Length of Visible Light 12h 36m
Length of Day
11h 43m
Waxing Gibbous, 70% of the Moon is Illuminated
Mar 10
Waxing Gibbous
Mar 16
Full
Mar 23
Last Quarter
Mar 30
New
Apr 7
First Quarter

Hourly Weather History & Observations

Time (CDT) Temp. Windchill Dew Point Humidity Pressure Visibility Wind Dir Wind Speed Gust Speed Precip Events Conditions
12:15 AM 41.0 °F 33.9 °F 35.8 °F 82% 30.03 in 7.0 mi SSW 12.7 mph - N/A   Clear
12:35 AM 41.2 °F 34.1 °F 35.6 °F 81% 30.03 in 7.0 mi SSW 12.7 mph - N/A   Clear
12:55 AM 41.7 °F 35.2 °F 35.8 °F 79% 30.01 in 7.0 mi SSW 11.5 mph - N/A   Clear
1:15 AM 42.1 °F 35.2 °F 35.8 °F 78% 30.01 in 7.0 mi SSW 12.7 mph - N/A   Clear
1:35 AM 41.7 °F 34.4 °F 36.0 °F 80% 30.01 in 7.0 mi SSW 13.8 mph - N/A   Clear
1:55 AM 41.9 °F 35.4 °F 36.3 °F 81% 30.01 in 7.0 mi SSW 11.5 mph - N/A   Clear
2:15 AM 41.5 °F 34.6 °F 36.5 °F 82% 30.00 in 7.0 mi SSW 12.7 mph - N/A   Clear
2:35 AM 41.4 °F 34.0 °F 36.5 °F 83% 30.00 in 7.0 mi SSW 13.8 mph - N/A   Clear
2:55 AM 41.5 °F 34.6 °F 36.9 °F 83% 29.99 in 5.0 mi SSW 12.7 mph - N/A   Haze
3:15 AM 41.2 °F 34.5 °F 36.9 °F 85% 29.99 in 5.0 mi SSW 11.5 mph - N/A   Clear
3:35 AM 41.9 °F 35.0 °F 37.4 °F 84% 29.97 in 5.0 mi SSW 12.7 mph - N/A   Haze
3:55 AM 41.9 °F 35.0 °F 37.4 °F 84% 29.96 in 5.0 mi SSW 12.7 mph 18.4 mph N/A   Haze
4:15 AM 41.2 °F 33.7 °F 37.4 °F 86% 29.95 in 5.0 mi SSW 13.8 mph - N/A   Clear
4:35 AM 41.2 °F 33.7 °F 37.4 °F 86% 29.95 in 5.0 mi SSW 13.8 mph - N/A   Clear
4:55 AM 41.2 °F 34.5 °F 37.4 °F 86% 29.94 in 5.0 mi SSW 11.5 mph - N/A   Clear
5:15 AM 41.0 °F 34.7 °F 37.6 °F 88% 29.94 in 5.0 mi SW 10.4 mph - N/A   Clear
5:35 AM 41.0 °F 34.3 °F 37.8 °F 88% 29.93 in 5.0 mi SSW 11.5 mph - N/A   Clear
5:55 AM 41.0 °F 34.3 °F 37.8 °F 88% 29.93 in 4.0 mi SSW 11.5 mph - N/A   Clear
6:15 AM 41.0 °F 33.9 °F 37.9 °F 89% 29.92 in 4.0 mi SSW 12.7 mph - N/A   Clear
6:35 AM 41.2 °F 34.1 °F 38.1 °F 89% 29.92 in 4.0 mi SSW 12.7 mph - N/A   Clear
7:00 AM 41.4 °F 34.3 °F 38.3 °F 89% 29.92 in 4.0 mi SSW 12.7 mph - N/A   Clear
7:15 AM 41.0 °F 33.9 °F 38.1 °F 89% 29.92 in 4.0 mi SW 12.7 mph - N/A   Clear
7:35 AM 41.4 °F 34.0 °F 38.3 °F 89% 29.92 in 3.0 mi SW 13.8 mph - N/A   Clear
7:55 AM 41.9 °F 34.6 °F 38.7 °F 88% 29.92 in 3.0 mi SSW 13.8 mph - N/A   Clear
8:15 AM 42.6 °F 35.6 °F 39.0 °F 87% 29.92 in 4.0 mi SSW 13.8 mph - N/A   Clear
8:35 AM 43.9 °F 36.8 °F 39.6 °F 85% 29.92 in 4.0 mi SSW 15.0 mph - N/A   Clear
8:55 AM 45.5 °F 39.2 °F 40.3 °F 82% 29.91 in 5.0 mi SW 13.8 mph - N/A   Haze
9:15 AM 47.3 °F - 41.0 °F 79% 29.92 in 5.0 mi SW 12.7 mph - N/A   Haze
9:35 AM 49.1 °F - 41.2 °F 74% 29.91 in 7.0 mi SW 11.5 mph 15.0 mph N/A   Clear
9:55 AM 50.9 °F - 41.9 °F 71% 29.90 in 7.0 mi SW 16.1 mph - N/A   Clear
10:15 AM 52.2 °F - 41.2 °F 66% 29.90 in 7.0 mi WSW 15.0 mph 20.7 mph N/A   Clear
10:40 AM 54.5 °F - 41.5 °F 62% 29.90 in 10.0 mi WSW 15.0 mph 20.7 mph N/A   Clear
10:55 AM 55.4 °F - 41.7 °F 60% 29.89 in 10.0 mi SW 18.4 mph 25.3 mph N/A   Clear
11:15 AM 57.0 °F - 41.9 °F 57% 29.89 in 10.0 mi WSW 17.3 mph 20.7 mph N/A   Clear
11:35 AM 58.3 °F - 41.9 °F 54% 29.89 in 10.0 mi SW 12.7 mph 23.0 mph N/A   Clear
11:55 AM 59.9 °F - 42.8 °F 53% 29.88 in 10.0 mi SW 13.8 mph - N/A   Clear
12:15 PM 60.4 °F - 41.9 °F 50% 29.88 in 10.0 mi SW 12.7 mph - N/A   Clear
12:35 PM 61.9 °F - 42.6 °F 49% 29.87 in 10.0 mi SW 13.8 mph 19.6 mph N/A   Clear
12:55 PM 62.8 °F - 42.8 °F 48% 29.86 in 10.0 mi WSW 13.8 mph 18.4 mph N/A   Clear
1:15 PM 63.9 °F - 43.2 °F 47% 29.85 in 10.0 mi SW 11.5 mph - N/A   Clear
1:35 PM 64.6 °F - 43.7 °F 47% 29.84 in 10.0 mi SSW 10.4 mph - N/A   Clear
1:55 PM 66.0 °F - 44.2 °F 45% 29.82 in 10.0 mi SSW 11.5 mph - N/A   Clear
2:15 PM 66.4 °F - 44.1 °F 44% 29.81 in 10.0 mi SSW 15.0 mph - N/A   Clear
2:35 PM 67.3 °F - 44.6 °F 44% 29.79 in 10.0 mi SSW 16.1 mph 20.7 mph N/A   Clear
2:55 PM 68.2 °F - 44.4 °F 42% 29.78 in 10.0 mi SW 16.1 mph 20.7 mph N/A   Clear
3:15 PM 68.5 °F - 44.6 °F 42% 29.77 in 10.0 mi SSW 16.1 mph 19.6 mph N/A   Clear
3:35 PM 68.5 °F - 45.0 °F 43% 29.77 in 10.0 mi SSW 13.8 mph 20.7 mph N/A   Clear
3:55 PM 68.5 °F - 46.4 °F 45% 29.76 in 10.0 mi South 12.7 mph - N/A   Clear
4:15 PM 68.5 °F - 45.9 °F 44% 29.76 in 10.0 mi SSW 15.0 mph - N/A   Clear
4:35 PM 68.2 °F - 45.5 °F 44% 29.75 in 10.0 mi South 9.2 mph - N/A   Clear
4:55 PM 67.5 °F - 45.9 °F 46% 29.75 in 10.0 mi SSW 13.8 mph - N/A   Clear
5:15 PM 67.3 °F - 45.5 °F 45% 29.75 in 10.0 mi South 11.5 mph - N/A   Clear
5:35 PM 67.1 °F - 45.9 °F 46% 29.74 in 10.0 mi South 12.7 mph - N/A   Clear
5:55 PM 67.1 °F - 45.5 °F 46% 29.74 in 10.0 mi South 11.5 mph 21.9 mph N/A   Clear
6:15 PM 65.1 °F - 46.0 °F 50% 29.74 in 10.0 mi SSW 11.5 mph - N/A   Clear
6:35 PM 65.1 °F - 45.5 °F 49% 29.74 in 10.0 mi South 10.4 mph - N/A   Clear
6:55 PM 64.0 °F - 45.0 °F 50% 29.74 in 10.0 mi South 10.4 mph - N/A   Clear
7:15 PM 62.2 °F - 45.3 °F 54% 29.74 in 10.0 mi South 13.8 mph - N/A   Clear
7:35 PM 61.5 °F - 45.5 °F 56% 29.75 in 10.0 mi South 11.5 mph - N/A   Clear
7:55 PM 59.4 °F - 45.9 °F 61% 29.75 in 10.0 mi South 10.4 mph - N/A   Clear
8:15 PM 59.2 °F - 46.0 °F 62% 29.75 in 10.0 mi South 13.8 mph - N/A   Clear
8:35 PM 59.2 °F - 45.9 °F 61% 29.75 in 10.0 mi South 12.7 mph - N/A   Clear
8:55 PM 58.1 °F - 45.9 °F 64% 29.75 in 10.0 mi SSW 13.8 mph - N/A   Clear
9:15 PM 57.6 °F - 46.4 °F 66% 29.75 in 10.0 mi South 15.0 mph - N/A   Clear
9:35 PM 57.2 °F - 46.8 °F 68% 29.75 in 10.0 mi SSW 13.8 mph 20.7 mph N/A   Clear
9:55 PM 57.4 °F - 47.7 °F 70% 29.75 in 10.0 mi SSW 17.3 mph 23.0 mph N/A   Clear
10:15 PM 56.7 °F - 48.0 °F 73% 29.75 in 10.0 mi SSW 15.0 mph - N/A   Clear
10:35 PM 56.1 °F - 48.4 °F 75% 29.75 in 10.0 mi SSW 16.1 mph 20.7 mph N/A   Clear
10:55 PM 55.9 °F - 48.6 °F 76% 29.75 in 10.0 mi SSW 13.8 mph - N/A   Clear
11:15 PM 55.4 °F - 48.4 °F 77% 29.75 in 10.0 mi SSW 12.7 mph - N/A   Clear
11:35 PM 55.4 °F - 48.4 °F 77% 29.75 in 10.0 mi SSW 13.8 mph - N/A   Clear
11:55 PM 55.4 °F - 48.2 °F 77% 29.74 in 10.0 mi SSW 15.0 mph - N/A   Clear